Temp
84 88 85 79 81 78 76 79 80 80 80 80 78 77 75 74 69 66 62 61 60 60
77 78 78 78 78 80 79 79 78 76 74 72 71 68 65 63 62 62 61 60 60 60
75 76 76 74 74 73 74 75 72 70 71 68 68 68 66 64 63 62 60 61 61 61
73 74 73 71 70 70 70 70 70 71 71 70 68 65 62 61 61 60 60 60 59 59
69 67 65 65 67 70 71 73 74 73 72 71 71 68 67 66 68 68 65 67 67 66
70 70 70 70 69 72 72 72 73 73 72 73 70 72 73 72 72 70 68 67 66 67
71 71 72 71 71 71 72 72 72 73 73 74 74 74 72 72 71 71 68 67 65 65
70 70 71 72 71 72 71 72 73 72 71 71 70 70 71 70 69 69 69 68 68 65
72 72 72 72 72 70 71 71 70 69 68 67 69 54 57 65 68 68 67 67 69 67
70 69 67 65 65 64 64 64 67 67 67 65 64 51 51 57 67 66 65 65 64 66
60 60 61 64 63 62 64 67 66 66 65 65 62 50 50 52 66 65 63 62 65 63
68 64 63 68 68 68 67 67 66 67 66 64 62 49 49 56 68 66 65 64 63 64
62 63 67 69 68 68 68 67 68 66 65 59 64 48 49 53 71 66 69 63 60 50
65 67 70 68 68 67 67 66 65 65 65 65 61 58 49 49 67 67 69 68 67 65
MSLP
1010.79 1010.16 1010.69 1011.23 1011.32 1011.63 1011.92 1012.22 1012.27 1012.28 1012.43 1012.30 1012.45 1012.80 1013.17 1013.36 1013.75 1014.19 1014.58 1014.75 1015.02 1015.49
1011.74 1011.84 1011.87 1012.15 1012.47 1012.25 1012.78 1012.68 1012.92 1013.23 1013.36 1013.58 1013.78 1014.17 1014.32 1014.60 1014.90 1015.08 1015.47 1015.40 1015.64 1016.16
1012.87 1012.81 1012.93 1013.23 1013.34 1013.59 1013.71 1013.71 1014.13 1014.33 1014.49 1014.60 1014.72 1015.04 1015.18 1015.40 1015.69 1015.77 1015.89 1016.18 1016.27 1016.29
1013.56 1013.65 1014.01 1014.35 1014.55 1014.65 1014.69 1014.77 1014.98 1015.18 1015.36 1015.42 1015.63 1015.94 1016.06 1016.25 1016.42 1016.39 1016.38 1016.58 1016.56 1016.63
1014.69 1015.01 1015.19 1015.40 1015.34 1015.29 1015.26 1015.30 1015.37 1015.72 1015.84 1016.12 1016.25 1016.47 1016.45 1016.41 1016.41 1016.28 1016.47 1016.45 1016.32 1016.39
1015.23 1015.41 1015.63 1015.98 1016.12 1015.89 1015.97 1015.99 1016.16 1016.31 1016.62 1016.36 1016.65 1016.36 1016.41 1016.28 1016.33 1016.40 1016.59 1016.92 1016.88 1016.73
1015.68 1015.85 1016.21 1016.56 1016.73 1016.70 1016.78 1016.82 1016.96 1017.06 1016.99 1016.81 1016.78 1016.77 1016.85 1016.82 1016.83 1016.89 1017.36 1017.80 1017.97 1018.00
1016.51 1016.72 1016.89 1017.06 1017.09 1017.12 1017.10 1017.23 1017.36 1017.68 1017.84 1017.88 1018.02 1018.14 1017.71 1017.74 1017.67 1017.42 1017.40 1017.70 1018.00 1018.58
1016.79 1017.03 1017.33 1017.34 1017.54 1017.78 1017.88 1018.04 1018.26 1018.55 1018.72 1018.83 1019.09 1019.20 1018.93 1018.53 1018.52 1018.37 1018.17 1018.07 1018.02 1018.46
1017.30 1017.90 1018.50 1018.68 1018.86 1018.82 1018.83 1018.93 1019.05 1019.19 1019.49 1019.77 1020.09 1020.16 1019.87 1019.53 1019.35 1019.17 1019.08 1019.19 1019.26 1019.15
1018.82 1019.12 1019.20 1019.15 1019.18 1019.23 1019.14 1019.25 1019.56 1019.77 1020.05 1020.34 1020.91 1021.12 1020.69 1020.25 1019.95 1020.15 1020.17 1020.03 1019.83 1020.22
1018.87 1019.12 1019.03 1018.94 1018.99 1019.20 1019.46 1019.64 1019.78 1020.00 1020.32 1020.76 1021.38 1021.40 1021.16 1020.60 1019.76 1019.90 1019.95 1020.48 1020.87 1020.88
1019.38 1019.20 1019.02 1019.15 1019.45 1019.61 1019.74 1019.88 1020.08 1020.45 1020.73 1021.09 1021.63 1021.89 1021.41 1020.83 1019.58 1019.75 1019.19 1020.19 1020.91 1021.27
1019.19 1018.95 1019.18 1019.50 1019.73 1019.96 1020.10 1020.31 1020.47 1020.72 1020.90 1021.23 1021.77 1022.37 1021.87 1021.58 1021.00 1020.43 1019.64 1019.45 1019.89 1021.04
Wind_Speed
4 1 5 5 7 5 6 4 6 6 6 7 9 6 8 7 7 12 9 12 10 6
12 12 10 8 6 7 5 6 10 11 12 12 13 13 11 9 11 11 9 9 7 4
9 9 8 8 9 8 9 11 12 12 14 14 14 14 11 9 9 10 7 5 6 5
11 11 11 11 11 10 9 10 12 13 13 14 13 11 9 8 7 8 7 4 5 4
13 12 11 9 5 9 11 11 12 12 12 13 11 9 7 6 7 7 5 5 4 4
11 12 12 13 10 11 12 12 13 12 11 11 9 10 8 9 9 9 11 13 11 12
9 10 13 12 12 11 12 12 12 11 11 10 10 10 9 10 9 10 12 12 12 12
9 10 11 12 11 11 10 10 12 12 12 12 11 11 10 10 10 10 9 9 9 10
9 11 10 11 12 12 12 12 11 12 12 13 11 13 15 11 10 10 10 9 9 11
10 12 11 10 9 9 8 8 10 12 12 13 12 14 15 11 11 11 11 11 11 11
8 7 6 7 6 5 7 9 9 11 11 10 9 10 11 13 11 10 11 10 11 11
5 5 4 8 9 9 8 8 9 9 10 10 9 12 12 13 7 7 9 9 10 11
2 4 7 9 8 7 8 8 8 9 8 9 8 10 13 13 5 5 4 11 10 11
5 4 9 7 7 7 7 7 7 7 6 7 5 5 8 12 8 9 8 8 8 9
Wind_Direction
51 152 49 38 37 48 44 34 19 5 0 4 24 38 32 19 26 55 53 68 63 39
44 53 60 55 41 45 34 28 46 41 44 51 57 66 69 64 68 74 68 68 71 57
61 57 50 56 49 55 50 53 67 74 71 74 73 66 68 74 72 75 65 62 70 43
51 53 54 60 63 71 77 72 77 81 85 81 79 73 72 73 74 78 82 73 85 75
73 67 65 52 61 80 80 88 86 82 82 80 80 91 95 109 109 107 119 136 90 93
88 95 88 77 59 69 71 67 67 76 74 73 62 69 53 66 61 53 48 44 40 28
83 90 93 95 95 92 89 87 83 78 68 66 59 55 50 51 55 53 71 62 50 46
76 72 78 80 81 71 67 68 74 72 64 61 57 34 46 56 49 49 67 81 81 59
101 98 97 84 77 72 71 69 75 72 69 67 63 20 23 42 56 52 45 39 57 87
76 83 84 85 89 79 74 70 73 75 80 76 68 15 13 9 56 51 55 50 37 43
95 99 100 89 86 79 81 83 85 91 88 81 61 21 9 337 67 76 54 37 52 53
95 114 143 108 97 93 92 94 93 89 86 77 43 11 10 353 91 95 109 86 62 47
93 203 92 87 90 95 96 91 98 95 94 80 63 22 4 7 17 65 98 137 117 85
164 102 92 101 98 87 81 93 94 90 88 79 41 72 30 13 11 7 350 31 33 56